1500627600.02,2050,20.94,74230.8,9.81,6.75,7.05,0,*4C
1500627601.26,2051,20.94,74228.5,9.81,6.87,7.11,0,*45
1500627602.51,2052,20.94,74234.8,9.81,6.91,7.23,0,*40
1500627603.72,2053,20.94,74232.0,9.81,7.01,7.27,0,*4D
1500627604.96,2054,20.94,74234.5,9.81,6.53,6.65,0,*4B
1500627606.18,2055,21.0,74238.5,9.81,6.69,6.79,0,*4E
1500627607.42,2056,20.94,74232.3,9.77,6.17,6.39,0,*49
1500627608.64,2057,20.94,74228.0,9.77,6.03,6.13,0,*45
1500627609.9,2058,20.94,74218.8,9.73,6.35,6.35,0,*4F
1500627611.12,2059,20.94,74226.3,9.71,6.39,6.47,0,*45
1500627612.31,2060,20.94,74224.5,9.71,6.73,6.79,0,*4C
1500627613.51,2061,21.0,74232.5,9.71,7.09,7.19,0,*46
1500627614.73,2062,20.94,74232.8,9.73,7.09,7.27,0,*4A
1500627615.92,2063,20.94,74232.5,9.71,7.15,7.37,0,*45
1500627617.12,2064,20.94,74236.5,9.71,7.09,7.19,0,*43
1500627618.33,2065,20.94,74238.8,9.71,6.57,6.61,0,*46
1500627619.51,2066,20.94,74240.5,9.69,7.01,7.01,0,*49
1500627620.73,2067,20.94,74242.0,9.69,6.91,7.01,0,*40
1500627621.92,2068,20.94,74240.3,9.67,7.05,7.23,0,*4D
1500627623.14,2069,20.94,74230.0,9.69,7.05,7.27,0,*46
1500627624.33,2070,20.94,74238.3,9.67,7.01,7.23,0,*40
1500627625.55,2071,20.94,74242.5,9.67,6.57,6.65,0,*40
1500627626.74,2072,20.94,74238.3,9.67,6.65,6.79,0,*4F
1500627627.96,2073,20.94,74238.5,9.65,7.11,7.33,0,*41
1500627629.21,2074,21.0,74238.5,9.65,6.61,6.87,0,*4E
1500627630.45,2075,20.94,74234.5,9.65,6.43,6.61,0,*47
1500627631.65,2076,20.94,74244.8,9.63,6.97,7.15,0,*49
1500627632.86,2077,20.94,74224.5,9.63,6.69,6.73,0,*48
1500627634.03,2078,20.94,74220.3,9.63,6.97,7.09,0,*4A
1500627635.22,2079,20.94,74234.8,9.63,7.19,7.41,0,*40
1500627636.41,2080,20.94,74226.8,9.63,7.51,7.65,0,*4C
1500627637.61,2081,20.94,74220.0,9.63,6.93,7.15,0,*45
1500627638.8,2082,20.94,74226.0,9.63,7.05,7.19,0,*44
1500627640.02,2083,20.94,74228.5,9.63,7.27,7.47,0,*4E
1500627641.21,2084,20.94,74234.3,9.65,7.33,7.55,0,*49
1500627642.41,2085,20.94,74240.0,9.63,7.27,7.55,0,*4B
1500627643.61,2086,20.94,74234.5,9.65,7.33,7.59,0,*47
1500627644.78,2087,20.94,74230.8,9.63,7.09,7.29,0,*4E
1500627645.97,2088,20.94,74228.5,9.63,6.57,6.93,0,*4B
1500627647.23,2089,20.94,74234.5,9.65,6.51,6.91,0,*48
1500627648.44,2090,20.94,74226.0,9.63,6.17,6.57,0,*4E
1500627649.66,2091,20.94,74240.5,9.61,6.39,6.79,0,*4D
1500627650.88,2092,20.94,74222.5,9.59,6.35,6.57,0,*45
1500627652.11,2093,20.94,74226.8,9.61,7.27,7.41,0,*4B
1500627653.36,2094,21.0,74230.8,9.61,7.65,7.73,0,*4B
1500627654.56,2095,20.94,74228.8,9.59,7.51,7.61,0,*45
1500627655.8,2096,20.94,74234.8,9.61,7.61,7.65,0,*4A
1500627657.05,2097,20.94,74232.0,9.61,7.73,7.83,0,*40
1500627658.25,2098,20.94,74230.3,9.61,7.37,7.37,0,*40
1500627659.47,2099,20.94,74234.0,9.61,7.47,7.51,0,*46
1500627660.72,2100,20.94,74230.3,9.61,7.61,7.87,0,*48
1500627661.95,2101,20.94,74222.8,9.61,7.51,7.73,0,*41
1500627663.15,2102,20.94,74222.0,9.63,7.51,7.61,0,*43
1500627664.39,2103,20.94,74224.5,9.61,7.19,7.27,0,*4E
1500627665.59,2104,20.94,74222.5,9.61,7.37,7.55,0,*40
1500627666.81,2105,20.94,74226.5,9.61,7.47,7.51,0,*42
1500627668.04,2106,20.94,74228.5,9.61,7.47,7.55,0,*45
1500627669.26,2107,20.94,74220.8,9.63,7.65,7.73,0,*42
1500627670.45,2108,20.94,74220.3,9.63,7.47,7.51,0,*4D
1500627671.63,2109,20.94,74230.0,9.63,7.29,7.29,0,*4B
1500627672.85,2110,20.94,74230.5,9.61,7.41,7.47,0,*47
1500627674.07,2111,20.94,74234.5,9.63,7.61,7.61,0,*42
1500627675.24,2112,20.94,74228.8,9.63,7.29,7.41,0,*4F
1500627676.47,2113,20.94,74228.5,9.63,7.61,7.73,0,*43
1500627677.64,2114,20.94,74230.3,9.63,7.29,7.41,0,*49
1500627678.89,2115,20.94,74226.5,9.61,7.65,7.77,0,*47
1500627680.11,2116,20.94,74220.0,9.61,7.55,7.65,0,*44
1500627681.33,2117,20.94,74214.0,9.61,7.83,7.97,0,*43
1500627682.58,2118,20.94,74216.3,9.61,7.77,7.95,0,*45
1500627683.75,2119,20.94,74224.3,9.63,8.09,8.15,0,*47
1500627684.95,2120,20.94,74226.8,9.63,7.95,7.97,0,*42
1500627686.12,2121,20.94,74226.3,9.63,8.19,8.19,0,*41
1500627687.29,2122,20.94,74222.0,9.63,8.23,8.23,0,*42
1500627688.54,2123,20.94,74228.0,9.65,8.33,8.33,0,*45
1500627689.74,2124,20.94,74230.3,9.65,8.45,8.45,0,*42
1500627690.96,2125,20.94,74232.8,9.65,8.13,8.23,0,*40
1500627692.19,2126,20.94,74234.8,9.65,8.33,8.27,0,*45
1500627693.43,2127,20.94,74238.8,9.69,8.37,8.37,0,*4D
1500627694.65,2128,20.94,74240.5,9.67,8.37,8.37,0,*4C
1500627695.88,2129,20.94,74240.0,9.67,8.41,8.41,0,*4D
1500627697.11,2130,20.94,74236.8,9.65,8.27,8.37,0,*46
1500627698.28,2131,20.94,74238.5,9.67,8.01,8.15,0,*41
1500627699.5,2132,20.94,74240.0,9.65,7.79,7.91,0,*43
1500627700.73,2133,20.94,74240.8,9.65,7.65,7.79,0,*49
1500627701.95,2134,20.94,74238.3,9.67,7.73,7.95,0,*49
1500627703.13,2135,20.94,74232.0,9.67,6.93,7.59,0,*47
1500627704.31,2136,20.94,74228.0,9.67,6.53,7.05,0,*41
1500627705.51,2137,20.94,74232.5,9.67,6.93,7.47,0,*4A
1500627706.71,2138,20.94,74238.8,9.67,7.15,7.59,0,*45
1500627707.89,2139,20.94,74234.8,9.67,7.01,7.47,0,*4E
1500627709.11,2140,20.94,74236.0,9.69,7.11,7.59,0,*40
1500627710.28,2141,20.94,74234.8,9.67,7.01,7.55,0,*42
1500627711.48,2142,20.94,74238.0,9.67,7.55,7.91,0,*48
1500627712.7,2143,20.94,74236.8,9.67,7.73,7.95,0,*49
1500627713.95,2144,20.94,74238.0,9.69,7.61,7.91,0,*47
1500627715.14,2145,20.94,74232.8,9.67,7.15,7.45,0,*42
1500627716.34,2146,20.94,74234.0,9.67,7.33,7.69,0,*4B
1500627717.56,2147,20.94,74236.5,9.67,7.83,8.13,0,*43
1500627718.78,2148,20.94,74232.8,9.67,7.83,8.13,0,*4C
1500627720.0,2149,20.94,74232.0,9.67,7.69,7.83,0,*4F
1500627721.22,2150,20.94,74234.5,9.69,7.61,7.79,0,*44
1500627722.42,2151,20.94,74240.0,9.67,7.45,7.69,0,*4C
1500627723.63,2152,20.94,74246.0,9.69,7.37,7.47,0,*48
1500627724.85,2153,20.94,74238.8,9.69,7.01,7.11,0,*4F
1500627726.07,2154,20.94,74234.8,9.69,6.83,6.91,0,*4A
1500627727.31,2155,20.94,74236.5,9.69,6.65,6.57,0,*49
1500627728.52,2156,20.94,74234.0,9.67,6.47,6.57,0,*44
1500627729.77,2157,20.94,74230.0,9.69,6.35,6.53,0,*4A
1500627731.0,2158,20.94,74230.5,9.67,6.47,6.91,0,*40
1500627732.19,2159,20.94,74232.8,9.67,6.57,6.79,0,*46
1500627733.41,2160,20.94,74236.5,9.65,7.09,7.23,0,*4A
1500627734.63,2161,20.94,74236.8,9.65,7.01,7.19,0,*4A
1500627735.82,2162,20.94,74234.8,9.67,7.01,7.19,0,*4B
1500627736.98,2163,20.94,74238.5,9.67,7.05,7.05,0,*43
1500627738.18,2164,20.94,74232.5,9.69,6.93,7.05,0,*44
1500627739.36,2165,20.94,74232.0,9.67,7.01,7.23,0,*45
1500627740.55,2166,20.94,74230.0,9.67,7.37,7.47,0,*41
1500627741.76,2167,20.94,74230.3,9.67,7.59,7.61,0,*4C
1500627742.95,2168,20.94,74236.3,9.67,7.79,7.83,0,*4D
1500627744.15,2169,20.94,74236.3,9.67,7.79,7.83,0,*4C
1500627745.35,2170,20.94,74236.8,9.67,7.59,7.73,0,*49
1500627746.58,2171,20.94,74238.0,9.67,7.73,7.69,0,*4B
1500627747.8,2172,20.94,74234.5,9.69,7.73,7.59,0,*45
1500627748.99,2173,20.94,74232.5,9.69,8.05,8.01,0,*48
1500627750.16,2174,20.94,74236.0,9.71,8.15,8.15,0,*42
1500627751.36,2175,20.94,74240.8,9.69,8.05,8.05,0,*4A
1500627752.55,2176,20.94,74240.8,9.69,8.01,8.01,0,*49
1500627753.79,2177,20.94,74240.8,9.69,7.91,7.91,0,*48
1500627755.04,2178,20.94,74240.3,9.69,7.83,7.95,0,*40
1500627756.23,2179,20.94,74240.3,9.69,8.01,8.15,0,*43
1500627757.46,2180,20.94,74240.5,9.67,7.95,8.13,0,*4F
1500627758.7,2181,20.94,74238.3,9.69,7.83,7.83,0,*41
1500627759.9,2182,20.94,74236.8,9.69,7.79,8.01,0,*42
1500627761.09,2183,20.94,74236.0,9.71,7.51,7.61,0,*49
1500627762.29,2184,20.94,74236.5,9.71,7.41,7.61,0,*4F
1500627763.46,2185,20.94,74238.5,9.71,7.41,7.51,0,*4D
1500627764.65,2186,20.94,74238.8,9.71,7.47,7.59,0,*40
1500627765.87,2187,20.94,74242.5,9.71,7.47,7.65,0,*4E
1500627767.07,2188,20.94,74242.5,9.71,7.29,7.61,0,*4D
1500627768.27,2189,20.94,74242.3,9.73,7.05,7.41,0,*42
1500627769.46,2190,20.94,74238.5,9.71,6.93,7.19,0,*4B
1500627770.63,2191,20.94,74240.3,9.71,6.83,7.09,0,*4A
1500627771.79,2192,20.94,74236.5,9.71,6.83,7.09,0,*49
1500627772.98,2193,20.94,74236.3,9.71,6.69,6.93,0,*4E
1500627774.17,2194,20.94,74234.3,9.71,6.69,6.93,0,*49
1500627775.34,2195,20.94,74238.8,9.71,6.97,7.09,0,*4B
1500627776.55,2196,20.94,74236.8,9.71,7.15,7.27,0,*4F
1500627777.72,2197,20.94,74238.0,9.71,7.37,7.37,0,*4F
1500627778.97,2198,20.94,74234.0,9.73,7.27,7.27,0,*42
1500627780.15,2199,20.94,74232.5,9.71,7.29,7.29,0,*41
1500627781.34,2200,20.94,74232.5,9.71,7.51,7.47,0,*45
1500627782.56,2201,20.94,74226.3,9.71,7.65,7.73,0,*44
1500627783.77,2202,20.94,74228.0,9.71,7.65,7.65,0,*40
1500627784.96,2203,20.94,74228.8,9.71,7.87,7.97,0,*40
1500627786.18,2204,20.94,74236.5,9.71,7.77,7.83,0,*4D
1500627787.39,2205,20.94,74234.5,9.71,7.15,7.15,0,*47
1500627788.59,2206,20.94,74232.3,9.69,7.33,7.37,0,*49
1500627789.81,2207,20.94,74234.5,9.69,7.55,7.69,0,*43
1500627791.06,2208,20.94,74234.8,9.69,7.61,7.73,0,*40
1500627792.26,2209,20.94,74236.5,9.67,7.27,7.45,0,*48
1500627793.45,2210,20.94,74242.0,9.67,7.11,7.33,0,*44
1500627794.65,2211,20.94,74232.0,9.67,6.79,6.91,0,*43
1500627795.84,2212,20.94,74230.8,9.67,6.13,6.07,0,*43
1500627797.09,2213,20.94,74230.5,9.65,5.85,5.85,0,*45
1500627798.29,2214,20.94,74238.3,9.63,5.95,5.85,0,*45
1500627799.46,2215,20.94,74228.8,9.63,6.25,6.07,0,*45
1500627800.67,2216,20.94,74228.3,9.59,6.73,6.57,0,*49
1500627801.89,2217,20.94,74222.3,9.59,6.73,6.69,0,*45
1500627803.09,2218,20.94,74220.5,9.59,6.83,6.91,0,*42
1500627804.25,2219,20.94,74222.8,9.59,7.01,7.01,0,*40
1500627805.41,2220,20.94,74222.8,9.59,7.33,7.33,0,*4A
1500627806.6,2221,20.94,74230.3,9.57,7.33,7.41,0,*40
1500627807.77,2222,20.94,74230.0,9.59,6.79,6.79,0,*48
1500627808.94,2223,20.94,74238.8,9.59,6.93,6.93,0,*49
1500627810.13,2224,20.94,74238.0,9.57,7.33,7.45,0,*41
1500627811.38,2225,20.94,74242.0,9.57,6.61,6.65,0,*45
1500627812.63,2226,20.94,74244.5,9.57,6.43,6.43,0,*42
1500627813.83,2227,20.94,74236.5,9.57,5.99,5.95,0,*4F
1500627815.02,2228,20.94,74236.8,9.55,6.21,6.17,0,*4B
1500627816.2,2229,20.94,74234.0,9.55,6.21,6.29,0,*47
1500627817.44,2230,20.94,74246.0,9.53,6.61,6.61,0,*41
1500627818.66,2231,20.94,74240.5,9.53,6.65,6.83,0,*48
1500627819.88,2232,20.94,74236.5,9.53,6.97,7.15,0,*48
1500627821.08,2233,20.94,74236.5,9.53,6.97,7.09,0,*44
1500627822.3,2234,20.94,74236.5,9.53,7.27,7.45,0,*41
1500627823.49,2235,20.94,74236.8,9.53,7.45,7.55,0,*45
1500627824.72,2236,20.94,74240.0,9.49,7.37,7.61,0,*4F
1500627825.91,2237,20.94,74236.8,9.53,7.37,7.55,0,*42
1500627827.13,2238,20.94,74242.0,9.53,7.19,7.45,0,*40
1500627828.31,2239,20.94,74242.8,9.49,7.01,7.33,0,*42
1500627829.53,2240,20.94,74236.0,9.53,6.83,7.19,0,*44
1500627830.78,2241,20.94,74228.3,9.53,6.65,6.87,0,*4B
1500627831.99,2242,20.94,74230.8,9.49,7.01,7.15,0,*4A
1500627833.19,2243,20.94,74242.3,9.53,7.45,7.55,0,*44
1500627834.38,2244,20.94,74236.0,9.53,7.05,6.97,0,*48
1500627835.58,2245,20.94,74228.5,9.53,6.29,6.29,0,*43
1500627836.83,2246,20.94,74228.0,9.53,6.87,6.87,0,*40
1500627838.02,2247,20.94,74222.5,9.49,6.93,7.05,0,*44
1500627839.24,2248,20.94,74224.8,9.49,7.05,7.11,0,*40
1500627840.46,2249,20.94,74220.3,9.49,7.15,7.33,0,*40
1500627841.67,2250,20.94,74220.8,9.49,7.27,7.33,0,*49
1500627842.87,2251,20.94,74228.0,9.53,7.45,7.55,0,*47
1500627844.06,2252,20.94,74222.0,9.53,7.37,7.41,0,*44
1500627845.3,2253,20.94,74218.8,9.49,7.15,7.23,0,*4A
1500627846.5,2254,20.94,74232.5,9.53,7.55,7.55,0,*43
1500627847.75,2255,20.94,74226.8,9.49,7.27,7.15,0,*48
1500627848.99,2256,20.94,74228.0,9.49,7.15,7.23,0,*4F
1500627850.21,2257,20.94,74228.5,9.49,7.27,7.33,0,*4E
1500627851.43,2258,20.94,74232.3,9.47,7.23,7.27,0,*4E
1500627852.65,2259,20.94,74226.3,9.47,7.27,7.27,0,*4B
1500627853.81,2260,20.94,74230.3,9.47,7.37,7.37,0,*41
1500627855.02,2261,20.94,74234.0,9.45,7.55,7.59,0,*4E
1500627856.21,2262,20.94,74234.5,9.47,7.79,7.91,0,*45
1500627857.44,2263,20.88,74228.3,9.47,7.61,7.69,0,*4A
1500627858.6,2264,20.94,74232.5,9.47,7.37,7.41,0,*44
1500627859.82,2265,20.94,74224.0,9.45,7.37,7.47,0,*41
1500627861.04,2266,20.94,74222.0,9.47,7.23,7.27,0,*43
1500627862.26,2267,20.94,74224.5,9.45,7.01,7.11,0,*45
1500627863.47,2268,20.94,74228.3,9.45,7.37,7.47,0,*4C
1500627864.73,2269,20.94,74222.8,9.45,6.87,6.91,0,*4D
1500627865.96,2270,20.94,74224.0,9.43,6.39,6.43,0,*49
1500627867.18,2271,20.94,74224.8,9.43,6.43,6.65,0,*41
1500627868.35,2272,20.94,74234.8,9.43,7.01,7.09,0,*4E
1500627869.58,2273,20.94,74230.8,9.41,7.55,7.61,0,*42
1500627870.84,2274,20.94,74234.8,9.41,7.61,7.73,0,*41
1500627872.04,2275,20.94,74216.8,9.41,7.45,7.51,0,*46
1500627873.23,2276,20.94,74224.5,9.41,7.33,7.45,0,*41
1500627874.48,2277,20.94,74228.8,9.41,7.61,7.65,0,*45
1500627875.73,2278,20.94,74216.0,9.41,7.73,7.73,0,*4E
1500627876.92,2279,20.94,74220.3,9.41,7.33,7.33,0,*4F
1500627878.11,2280,20.94,74224.5,9.39,7.37,7.37,0,*46
1500627879.36,2281,20.94,74212.5,9.41,7.65,7.77,0,*4B
1500627880.57,2282,20.94,74216.3,9.39,6.69,6.79,0,*45
1500627881.81,2283,20.94,74218.5,9.39,7.27,7.27,0,*45
1500627883.04,2284,20.94,74212.3,9.39,7.59,7.61,0,*49
1500627884.25,2285,20.94,74214.0,9.39,7.79,7.83,0,*46
1500627885.51,2286,20.94,74214.3,9.41,7.77,7.73,0,*4B
1500627886.75,2287,20.94,74222.0,9.39,7.61,7.69,0,*49
1500627888.0,2288,20.94,74220.8,9.41,7.73,7.83,0,*4E
1500627889.25,2289,20.88,74222.8,9.41,7.73,7.83,0,*4F
1500627890.49,2290,20.94,74214.3,9.39,7.91,7.95,0,*43
1500627891.74,2291,20.94,74224.8,9.39,7.69,7.73,0,*4D
1500627892.99,2292,20.94,74222.3,9.41,7.65,7.73,0,*4D
1500627894.18,2293,20.94,74214.8,9.37,7.47,7.51,0,*4D
1500627895.4,2294,20.88,74206.5,9.39,7.59,7.61,0,*48
1500627896.64,2295,20.94,74200.3,9.39,7.69,7.73,0,*49
1500627897.89,2296,20.88,74206.3,9.39,7.83,7.95,0,*46
1500627899.07,2297,20.94,74214.8,9.39,7.97,8.05,0,*44
1500627900.24,2298,20.94,74228.0,9.37,8.05,8.05,0,*41
1500627901.43,2299,20.88,74226.5,9.39,8.09,8.09,0,*4E
1500627902.62,2300,20.94,74220.0,9.39,8.09,8.15,0,*42
1500627903.8,2301,20.94,74224.0,9.39,8.09,8.09,0,*4E
1500627905.04,2302,20.94,74232.0,9.39,7.95,7.91,0,*49
1500627906.26,2303,20.94,74236.8,9.39,7.79,7.83,0,*49
1500627907.48,2304,20.94,74226.0,9.39,7.47,7.51,0,*4C
1500627908.72,2305,20.94,74232.5,9.41,7.87,7.87,0,*45
1500627909.92,2306,20.88,74222.0,9.39,7.79,7.79,0,*49
1500627911.1,2307,20.94,74228.3,9.39,7.97,7.97,0,*48
1500627912.26,2308,20.88,74226.3,9.37,8.05,8.09,0,*45
1500627913.45,2309,20.94,74226.0,9.39,8.05,8.09,0,*4A
1500627914.64,2310,20.88,74230.8,9.39,8.09,8.27,0,*42
1500627915.84,2311,20.94,74232.3,9.39,8.15,8.19,0,*43
1500627917.03,2312,20.88,74222.5,9.39,8.05,8.15,0,*4D
1500627918.21,2313,20.94,74222.0,9.39,8.09,8.09,0,*4D
1500627919.4,2314,20.94,74216.3,9.39,8.09,8.09,0,*4A
1500627920.59,2315,20.88,74230.0,9.39,8.09,8.09,0,*4B
1500627921.84,2316,20.94,74232.3,9.41,8.29,8.33,0,*4C
1500627923.06,2317,20.94,74238.5,9.41,8.23,8.41,0,*42
1500627924.29,2318,20.88,74224.0,9.41,8.19,8.33,0,*41
1500627925.49,2319,20.88,74228.5,9.41,8.09,8.23,0,*40
1500627926.71,2320,20.94,74232.0,9.41,8.01,8.13,0,*41
1500627927.94,2321,20.88,74230.3,9.41,8.01,8.13,0,*40
1500627929.16,2322,20.88,74240.3,9.41,7.97,8.13,0,*43
1500627930.33,2323,20.94,74242.3,9.43,8.05,8.15,0,*42
1500627931.53,2324,20.94,74228.8,9.43,6.57,6.75,0,*44
1500627932.73,2325,20.94,74232.0,9.43,6.91,7.09,0,*45
1500627933.96,2326,20.88,74224.3,9.41,6.97,6.87,0,*45
1500627935.15,2327,20.88,74230.8,9.41,7.41,7.41,0,*45
1500627936.4,2328,20.94,74238.3,9.39,7.73,7.73,0,*45
1500627937.61,2329,20.88,74232.0,9.39,7.79,7.91,0,*42
1500627938.8,2330,20.94,74242.0,9.39,7.51,7.59,0,*44
1500627940.02,2331,20.94,74236.0,9.39,7.61,7.79,0,*44
1500627941.28,2332,20.88,74238.3,9.41,7.73,7.77,0,*45
1500627942.5,2333,20.94,74238.0,9.37,7.69,7.69,0,*41
1500627943.74,2334,20.88,74228.5,9.39,7.69,7.69,0,*48
1500627944.93,2335,20.94,74232.5,9.39,7.59,7.51,0,*41
1500627946.12,2336,20.94,74236.5,9.37,7.47,7.41,0,*42
1500627947.32,2337,20.88,74230.5,9.37,7.29,7.23,0,*4F
1500627948.51,2338,20.88,74230.5,9.39,7.29,7.29,0,*44
1500627949.68,2339,20.88,74228.5,9.37,7.41,7.37,0,*4A
1500627950.87,2340,20.88,74212.8,9.37,7.47,7.41,0,*43
1500627952.06,2341,20.88,74218.0,9.37,7.61,7.59,0,*4F
1500627953.29,2342,20.88,74218.0,9.37,7.73,7.69,0,*4C
1500627954.51,2343,20.88,74218.5,9.37,7.73,7.69,0,*4D
1500627955.69,2344,20.88,74212.0,9.37,6.83,6.73,0,*4E
1500627956.91,2345,20.88,74216.5,9.35,6.91,6.79,0,*44
1500627958.12,2346,20.88,74212.0,9.35,7.01,6.91,0,*49
1500627959.29,2347,20.88,74224.3,9.33,6.97,7.01,0,*48
1500627960.51,2348,20.88,74220.5,9.33,7.23,7.23,0,*49
1500627961.74,2349,20.88,74218.5,9.35,6.69,6.69,0,*4E
1500627962.93,2350,20.88,74224.5,9.33,7.01,6.87,0,*4F
1500627964.13,2351,20.88,74224.0,9.35,7.55,7.45,0,*46
1500627965.32,2352,20.88,74228.0,9.33,7.47,7.45,0,*40
1500627966.49,2353,20.88,74230.0,9.33,7.55,7.45,0,*42
1500627967.71,2354,20.88,74218.0,9.35,7.33,7.19,0,*4A
1500627968.95,2355,20.88,74212.0,9.31,6.73,6.53,0,*45
1500627970.19,2356,20.88,74218.0,9.31,6.73,6.61,0,*47
1500627971.44,2357,20.94,74226.8,9.27,7.15,7.15,0,*42
1500627972.68,2358,20.94,74220.5,9.31,7.65,7.61,0,*4E
1500627973.93,2359,20.88,74222.3,9.31,7.87,7.77,0,*44
1500627975.17,2360,20.94,74212.5,9.31,6.61,6.65,0,*45
1500627976.4,2361,20.94,74228.5,9.27,6.35,6.25,0,*46
1500627977.61,2362,20.94,74224.0,9.25,6.57,6.57,0,*46
1500627978.86,2363,20.88,74216.8,9.23,6.57,6.65,0,*40
1500627980.05,2364,20.94,74224.8,9.23,6.75,6.79,0,*4A
1500627981.22,2365,20.94,74220.5,9.25,7.05,6.93,0,*4F
1500627982.41,2366,20.88,74222.8,9.23,6.97,7.01,0,*4A
1500627983.63,2367,20.88,74224.0,9.21,7.15,7.23,0,*42
1500627984.86,2368,20.88,74222.0,9.21,7.77,7.77,0,*48
1500627986.07,2369,20.94,74228.5,9.23,7.79,7.79,0,*4B
1500627987.31,2370,20.88,74226.3,9.23,7.91,7.91,0,*43
1500627988.54,2371,20.88,74230.0,9.23,8.13,8.27,0,*45
1500627989.71,2372,20.88,74224.0,9.25,7.97,8.05,0,*43
1500627990.93,2373,20.94,74222.3,9.25,7.73,7.87,0,*4D
1500627992.12,2374,20.88,74216.8,9.25,7.95,7.97,0,*43
1500627993.35,2375,20.88,74224.3,9.25,7.87,7.95,0,*43
1500627994.52,2376,20.94,74224.8,9.25,8.05,8.05,0,*43
1500627995.68,2377,20.94,74224.8,9.25,8.09,8.09,0,*42
1500627996.93,2378,20.88,74224.5,9.31,8.13,8.13,0,*48
1500627998.18,2379,20.94,74232.5,9.27,7.83,7.83,0,*4E
1500627999.4,2380,20.94,74232.8,9.27,7.95,7.97,0,*4A
1500628000.64,2381,20.88,74216.0,9.31,7.65,7.73,0,*49
1500628001.89,2382,20.88,74224.5,9.31,7.73,7.77,0,*49
1500628003.13,2383,20.94,74222.3,9.31,7.77,7.83,0,*47
1500628004.36,2384,20.88,74238.8,9.27,7.59,7.69,0,*4F
1500628005.61,2385,20.88,74240.8,9.27,7.73,7.83,0,*42
1500628006.83,2386,20.88,74232.0,9.27,7.59,7.61,0,*45
1500628008.09,2387,20.88,74238.8,9.27,7.47,7.61,0,*4B
1500628009.29,2388,20.88,74236.3,9.27,7.29,7.37,0,*4F
1500628010.53,2389,20.88,74246.8,9.31,7.47,7.65,0,*46
1500628011.75,2390,20.88,74248.5,9.31,7.55,7.65,0,*4D
1500628012.98,2391,20.88,74244.3,9.27,7.59,7.69,0,*4B
1500628014.18,2392,20.88,74240.0,9.27,7.29,7.51,0,*44
1500628015.4,2393,20.88,74240.5,9.31,6.65,7.05,0,*4A
1500628016.59,2394,20.88,74248.8,9.31,7.09,7.41,0,*46
1500628017.81,2395,20.88,74240.0,9.31,6.75,7.19,0,*40
1500628019.01,2396,20.94,74242.3,9.31,7.09,7.29,0,*4A
1500628020.21,2397,20.88,74240.3,9.27,7.29,7.59,0,*49
1500628021.45,2398,20.88,74238.5,9.27,7.15,7.15,0,*41
1500628022.71,2399,20.88,74238.8,9.27,7.61,7.73,0,*43
1500628023.93,2400,20.88,74250.8,9.31,7.97,7.95,0,*42
1500628025.09,2401,20.88,74244.0,9.33,8.65,8.69,0,*4F
1500628026.29,2402,20.88,74252.5,9.33,8.89,9.03,0,*43
1500628027.53,2403,20.88,74244.3,9.35,7.87,7.95,0,*44
1500628028.78,2404,20.94,74228.8,9.35,7.65,7.77,0,*43
1500628030.02,2405,20.88,74214.5,9.35,7.19,7.19,0,*41
1500628031.24,2406,20.88,74214.5,9.35,6.65,6.75,0,*43
1500628032.48,2407,20.88,74222.8,9.35,6.57,6.57,0,*43
1500628033.7,2408,20.94,74240.3,9.35,6.65,6.75,0,*4D
1500628034.94,2409,20.88,74242.3,9.35,7.65,7.65,0,*4D
1500628036.15,2410,20.88,74226.3,9.39,7.41,7.69,0,*43
1500628037.35,2411,20.88,74248.8,9.43,7.69,7.97,0,*44
1500628038.52,2412,20.88,74258.0,9.43,7.97,8.05,0,*42
1500628039.76,2413,20.94,74232.8,9.41,6.03,6.35,0,*40
1500628040.94,2414,20.88,74238.0,9.43,6.21,6.75,0,*41
1500628042.16,2415,20.94,74242.3,9.43,6.53,7.19,0,*4E
1500628043.39,2416,20.94,74234.0,9.45,6.51,7.33,0,*41
1500628044.58,2417,20.94,74232.0,9.47,7.05,7.83,0,*49
1500628045.78,2418,20.88,74242.3,9.49,8.15,8.69,0,*4D
1500628046.97,2419,20.88,74246.0,9.47,8.19,8.71,0,*47
1500628048.21,2420,20.88,74246.5,9.53,8.75,9.11,0,*45
1500628049.4,2421,20.88,74234.5,9.53,8.65,9.07,0,*42
1500628050.65,2422,20.88,74232.5,9.57,8.89,9.11,0,*40
1500628051.87,2423,20.88,74240.5,9.57,9.01,9.21,0,*43
1500628053.07,2424,20.88,74252.0,9.59,9.19,9.25,0,*47
1500628054.3,2425,20.88,74254.8,9.61,9.39,9.43,0,*4F
1500628055.52,2426,20.88,74252.8,9.61,9.43,9.61,0,*41
1500628056.75,2427,20.88,74256.8,9.65,9.33,9.53,0,*42
1500628057.97,2428,20.94,74262.5,9.65,9.33,9.57,0,*49
1500628059.19,2429,20.94,74258.8,9.69,9.29,9.61,0,*4A
1500628060.38,2430,20.88,74252.8,9.69,9.03,9.29,0,*46
1500628061.58,2431,20.88,74250.0,9.71,8.27,8.75,0,*41
1500628062.78,2432,20.88,74246.8,9.73,8.05,8.61,0,*45
1500628064.03,2433,20.88,74250.0,9.73,8.41,8.75,0,*41
1500628065.24,2434,20.88,74258.5,9.81,8.61,8.93,0,*41
1500628066.46,2435,20.88,74264.8,9.81,8.61,9.11,0,*4B
1500628067.68,2436,20.88,74262.8,9.83,6.91,7.69,0,*4A
1500628068.93,2437,20.88,74260.3,9.85,5.93,6.73,0,*46
1500628070.14,2438,20.88,74262.3,9.85,5.89,6.79,0,*48
1500628071.36,2439,20.88,74254.3,9.87,6.13,6.73,0,*41
1500628072.55,2440,20.88,74250.3,9.91,6.11,6.69,0,*41
1500628073.73,2441,20.88,74250.0,9.91,5.95,6.33,0,*40
1500628074.95,2442,20.88,74246.3,9.93,5.99,6.69,0,*42
1500628076.16,2443,20.88,74248.8,9.95,6.51,7.29,0,*47
1500628077.36,2444,20.88,74250.3,9.95,6.83,7.83,0,*4F
1500628078.55,2445,20.88,74250.3,9.99,6.13,6.75,0,*43
1500628079.77,2446,20.88,74244.0,10.01,6.69,7.55,0,*77
1500628081.02,2447,20.88,74248.3,10.01,7.47,8.37,0,*70
1500628082.25,2448,20.88,74244.0,10.05,7.91,8.75,0,*76
1500628083.49,2449,20.88,74244.8,10.05,7.19,8.59,0,*79
1500628084.72,2450,20.88,74248.3,10.07,7.09,8.13,0,*7C
1500628085.96,2451,20.88,74244.5,10.07,6.51,7.97,0,*72
1500628087.22,2452,20.88,74240.5,10.11,6.53,8.37,0,*71
1500628088.42,2453,20.88,74244.0,10.09,6.79,8.55,0,*75
1500628089.68,2454,20.88,74244.3,10.11,6.43,8.13,0,*70
1500628090.88,2455,20.88,74252.3,10.13,7.05,8.47,0,*71
1500628092.14,2456,20.88,74248.5,10.11,6.39,7.73,0,*76
1500628093.35,2457,20.88,74242.5,10.13,5.93,7.37,0,*76
1500628094.55,2458,20.88,74246.0,10.17,6.87,8.19,0,*78
1500628095.79,2459,20.88,74248.8,10.15,7.27,8.19,0,*70
1500628097.02,2460,20.88,74250.3,10.15,6.25,7.27,0,*7B
1500628098.28,2461,20.88,74256.3,10.15,6.61,7.95,0,*73
1500628099.45,2462,20.88,74256.5,10.17,6.93,8.09,0,*75
1500628100.64,2463,20.88,74258.8,10.17,5.27,6.83,0,*74
1500628101.86,2464,20.88,74256.5,10.21,4.79,6.61,0,*70
1500628103.08,2465,20.88,74258.5,10.21,5.51,7.19,0,*74
1500628104.3,2466,20.88,74254.3,10.23,5.95,7.65,0,*76
1500628105.51,2467,20.88,74248.0,10.23,6.33,7.97,0,*75
1500628106.71,2468,20.88,74254.5,10.23,6.21,7.55,0,*77
1500628107.94,2469,20.88,74252.8,10.27,5.67,7.15,0,*77
1500628109.14,2470,20.88,74250.3,10.27,5.67,7.33,0,*7B
1500628110.31,2471,20.88,74250.3,10.29,5.59,7.37,0,*7D
1500628111.55,2472,20.88,74256.8,10.31,6.33,7.77,0,*7C
1500628112.8,2473,20.88,74256.8,10.31,4.93,6.39,0,*7E
1500628114.03,2474,20.88,74254.8,10.29,4.05,5.55,0,*76
1500628115.27,2475,20.88,74250.3,10.31,5.01,6.03,0,*7B
1500628116.51,2476,20.88,74244.8,10.31,5.73,6.73,0,*7A
1500628117.71,2477,20.88,74246.0,10.29,5.81,6.75,0,*79
1500628118.9,2478,20.88,74248.8,10.29,5.71,6.87,0,*74
1500628120.13,2479,20.88,74246.5,10.31,5.01,6.11,0,*74
1500628121.35,2480,20.88,74254.5,10.31,5.41,6.61,0,*71
1500628122.58,2481,20.88,74254.8,10.31,6.11,7.11,0,*70
1500628123.77,2482,20.88,74252.3,10.33,6.11,7.23,0,*70
1500628125.0,2483,20.88,74252.8,10.35,5.89,6.93,0,*7F
1500628126.23,2484,20.88,74250.3,10.35,6.25,7.27,0,*73
1500628127.48,2485,20.88,74252.8,10.35,6.35,7.27,0,*73
1500628128.71,2486,20.88,74250.0,10.37,6.11,6.87,0,*7F
1500628129.93,2487,20.88,74248.5,10.37,6.57,7.05,0,*77
1500628131.14,2488,20.88,74246.0,10.39,6.47,7.05,0,*77
1500628132.36,2489,20.88,74248.3,10.37,7.05,7.65,0,*79
1500628133.6,2490,20.88,74250.8,10.39,7.19,7.73,0,*75
1500628134.82,2491,20.88,74246.8,10.41,7.59,7.87,0,*74
1500628136.04,2492,20.88,74246.8,10.41,7.41,7.65,0,*72
1500628137.26,2493,20.88,74244.3,10.45,6.91,7.05,0,*7D